Location: Peterborough
(44.3091°N, 78.3197°W)
Time: 08:01:07
(UTC-05:00)

A-11 Canister half - Pass Details

Date: 11 December 2023
Orbit: 1512 x 1687 km, 47.2° (Epoch: 25 February)

Event Time Altitude Azimuth Distance (km) Brightness Sun altitude
Exits shadow 02:54:33 38° 96° (E) 2,332 10.0 -49.6°
Drops below altitude 10° 03:00:06 10° 101° (E) 3,930 11.5 -48.7°
Sets 03:03:17 0° 103° (ESE) 4,928 12.2 -48.1°
